sat.trackr.live / text

‹ back to catalog

STARLINK-31237

NORAD 58855 · 2024-019C

PAYLOAD ACTIVE UNKNOWN

§ Identity

Operator
Country
US
Launch date
2024-01-29
Launch site
AFETR
Launch vehicle
Mass (kg)
RCS (m²)

Purposes: comms

External: N2YO · Heavens-Above · Gunter

§ Orbital elements

Epoch: 2026-05-25T02:42:18.207072Z

Period
94.27 min
Inclination
43.0002°
Eccentricity
0.0001203
Mean motion
15.27576227 rev/d
Perigee alt
482.2 km
Apogee alt
483.9 km
Semi-major
6,861.2 km
B*
-6.5713e-5
RAAN
177.0583°
Arg perigee
268.5238°
Mean anomaly
91.5476°
Rev number
13,077

§ Raw data

STARLINK-312371 58855U 24019C   26145.11271073 -.00002070  00000+0 -65713-4 0  99932 58855  43.0002 177.0583 0001203 268.5238  91.5476 15.27576227130777

JSON: /api/v1/satellites/58855 · /tle

For live sub-satellite position, see the globe view (requires WebGL).

§ Visibility from observer

Set your observer location to see the next 7 days of passes ≥ 10°. The values pass through the URL so the page stays shareable.

No JS? Fill the form by hand. The geolocation button needs JavaScript.